Wind_Speed
26 28 35 36 37 37 35 34 35 35 34 33 34 33 32 34 37 39 41 40 39 39 40 39 38 38 37 37 37 37 37 40 47 48 48 48 49 50 50 52 54 56 59
38 44 41 37 37 41 41 40 41 39 38 37 36 37 36 37 39 41 42 42 41 40 41 40 40 38 38 40 39 39 39 42 46 51 50 49 49 51 53 56 56 58 61
41 40 42 44 43 43 45 44 44 44 44 42 42 41 39 38 40 42 44 45 42 42 42 42 41 41 43 42 44 40 41 45 46 50 50 53 53 54 56 57 60 60 61
41 42 49 51 50 48 48 46 45 44 49 48 48 46 44 42 43 44 46 46 45 43 41 42 42 45 44 43 39 42 45 47 49 50 52 54 56 57 61 62 63 63 65
50 48 50 53 52 49 47 48 48 50 50 50 51 49 48 47 46 46 48 47 46 45 44 44 46 46 45 41 42 44 47 49 51 55 57 55 56 62 64 64 68 67 66
49 49 48 51 51 50 48 49 50 51 52 50 50 49 47 46 44 45 47 48 49 49 49 50 49 50 44 40 44 46 48 52 54 59 60 61 61 63 63 63 65 67 74
53 57 56 53 49 48 49 50 51 51 48 48 47 46 42 40 41 45 48 49 50 51 51 50 50 45 39 43 44 45 50 53 56 59 60 61 62 58 61 62 62 64 66
50 52 52 52 50 46 44 43 44 46 44 41 41 39 40 39 41 42 44 48 51 52 51 50 45 38 41 44 43 46 49 53 55 56 56 58 57 58 58 62 66 68 66
45 44 43 42 39 37 40 41 42 40 35 35 36 40 37 36 39 42 42 46 50 51 48 44 38 39 40 41 45 49 53 52 53 52 53 53 52 52 54 60 61 64 67
30 31 33 33 35 39 37 37 37 38 36 35 39 39 37 34 36 40 42 47 49 45 41 37 37 38 38 40 45 51 51 50 52 52 52 52 52 53 54 57 59 61 62
34 33 35 35 35 36 35 38 40 41 42 42 41 41 38 38 39 41 44 45 44 40 39 34 34 35 37 39 45 47 48 51 51 53 54 54 54 55 57 57 58 59 58
42 40 39 39 42 43 42 41 41 42 42 46 46 45 45 45 44 43 44 44 40 39 34 32 34 35 35 38 41 43 47 49 51 52 53 53 55 56 58 58 58 60 62
36 39 38 38 39 45 49 51 51 47 46 47 48 47 48 51 49 44 46 43 38 37 33 33 34 34 34 37 38 42 45 48 50 52 53 53 54 56 57 58 58 60 61
38 38 42 42 44 49 50 48 51 54 52 50 48 48 49 52 50 46 45 40 38 36 33 33 34 32 33 33 37 39 43 46 49 51 52 52 53 55 56 57 60 62 62
55 50 43 42 41 42 42 38 37 33 36 39 41 43 48 50 49 46 40 38 37 35 33 34 32 32 31 33 35 39 42 45 47 48 49 51 52 53 55 57 59 59 60
54 54 51 49 48 47 45 45 49 50 49 49 44 42 42 47 50 46 40 42 37 33 35 33 32 31 30 32 35 38 40 43 44 45 47 48 51 52 56 57 57 58 62
47 47 47 46 46 49 50 50 53 50 53 53 51 53 53 52 52 47 43 43 33 33 33 32 31 28 27 31 36 39 40 42 43 44 45 46 49 51 54 57 57 61 64
45 46 43 41 41 44 47 50 51 53 51 49 51 52 57 60 52 48 47 37 31 32 31 32 29 26 26 30 35 38 39 41 41 42 43 45 48 51 54 55 59 63 65
45 45 45 49 49 45 42 42 45 46 49 49 49 53 61 57 49 46 42 35 31 29 30 30 27 25 24 29 35 37 39 41 41 42 43 45 48 51 52 55 60 63 66
47 47 47 47 49 50 45 46 44 47 48 50 49 52 60 56 48 42 39 31 30 28 30 26 24 24 23 28 34 35 37 40 41 42 42 43 47 50 53 57 60 64 67
49 49 45 43 40 41 44 46 43 47 47 47 46 49 48 41 39 40 33 28 29 28 26 24 23 22 22 28 32 34 36 38 41 42 43 44 46 51 53 56 61 64 67
46 45 44 41 38 37 39 42 47 45 40 39 41 39 37 42 41 37 28 30 25 25 23 22 21 21 22 26 32 34 34 38 39 42 42 44 46 49 54 57 61 65 66
35 40 42 41 38 39 41 42 39 34 32 33 35 38 39 39 36 30 27 23 24 23 22 20 20 21 21 26 31 34 34 38 40 41 42 44 46 48 52 57 60 65 67
32 34 36 37 38 37 35 33 31 28 31 36 34 37 37 34 28 23 21 24 23 21 20 19 19 20 22 26 30 33 34 37 40 40 41 43 45 47 51 54 58 61 66
26 29 31 31 29 27 26 25 29 34 35 36 36 36 31 25 21 21 23 23 22 20 20 20 19 21 22 25 29 32 33 35 38 40 39 40 43 46 48 51 55 58 63
15 14 14 15 19 25 31 32 30 30 32 32 31 27 23 20 20 22 22 21 20 20 21 21 21 22 23 26 29 31 33 35 38 39 38 39 41 44 46 49 51 55 59
Wind_Direction
263 271 267 265 264 261 269 270 272 275 277 279 283 285 284 278 275 277 281 283 284 283 281 280 282 284 284 286 290 294 297 298 296 292 297 300 301 301 299 300 299 299 297
272 267 266 254 257 265 266 265 266 269 271 273 275 276 281 279 279 279 281 282 282 282 281 280 280 280 279 286 290 293 296 296 296 293 297 301 299 299 301 300 303 303 302
273 262 253 255 261 260 257 260 263 264 266 268 271 273 274 275 273 274 277 276 278 279 278 277 276 274 281 284 286 291 292 293 295 296 297 300 302 303 302 304 304 304 304
263 257 253 256 257 261 255 252 253 257 260 264 266 267 268 272 272 273 273 272 272 273 273 273 271 275 282 285 286 288 290 292 295 298 300 299 300 305 305 306 304 307 304
268 262 258 259 260 254 252 248 250 252 252 255 258 261 263 267 271 270 268 270 272 272 271 270 270 278 278 279 283 286 291 293 295 299 301 300 306 308 310 310 309 308 305
266 262 261 259 253 252 251 248 250 252 252 253 255 256 258 262 265 266 269 270 270 270 270 271 269 276 278 278 281 289 294 298 300 303 305 307 310 309 309 308 308 306 304
267 263 260 260 253 252 252 250 249 252 253 254 254 255 256 257 259 261 264 265 266 265 267 265 272 276 272 276 283 290 296 301 303 304 304 307 307 309 308 309 307 303 304
264 264 258 254 253 250 249 251 250 250 250 253 252 249 249 253 258 261 264 264 265 267 267 268 271 268 273 281 286 292 296 297 299 301 304 306 310 313 313 312 309 309 304
263 263 255 248 241 241 246 247 247 247 240 243 247 245 249 252 256 257 260 261 263 266 266 265 262 268 277 284 289 295 296 302 302 306 308 311 312 312 311 308 310 304 303
256 250 239 231 238 243 244 242 240 239 240 239 241 243 247 251 256 256 258 260 261 263 261 258 262 271 279 285 292 295 301 307 309 310 311 314 314 314 312 309 308 304 302
240 230 227 231 234 234 238 242 245 244 239 242 244 246 249 251 256 252 255 259 261 258 256 255 262 271 279 289 294 301 310 312 314 316 318 317 316 313 312 310 308 308 307
249 239 233 234 235 234 237 243 248 249 246 245 246 248 249 250 253 252 253 256 255 253 248 254 262 271 281 291 300 309 312 315 318 319 318 316 314 314 313 313 313 312 309
237 236 236 234 236 241 242 242 242 245 247 248 248 250 251 252 253 255 255 256 250 243 244 249 261 270 282 293 307 312 317 319 318 318 317 316 314 314 315 315 313 311 306
263 244 238 240 244 247 248 246 248 247 245 245 248 249 248 248 251 255 254 251 244 237 242 251 262 270 280 294 307 319 320 320 318 317 317 317 315 315 316 315 313 311 308
284 280 268 262 255 249 245 249 255 261 255 254 255 255 254 250 256 252 254 248 238 240 245 256 264 273 284 301 314 318 321 319 317 318 318 318 317 316 318 318 316 314 315
269 270 271 271 271 272 273 276 279 277 273 272 269 261 251 244 244 248 245 234 234 242 250 258 265 273 289 305 312 317 320 318 318 321 322 323 322 322 320 321 321 324 323
262 263 258 254 258 262 265 264 263 263 267 265 262 257 245 236 240 241 234 227 224 241 251 260 267 279 296 308 312 318 320 320 322 325 327 328 327 323 324 325 329 329 326
272 263 256 253 257 256 254 253 252 253 255 256 253 249 239 230 231 232 237 225 225 239 251 262 271 283 300 308 311 316 322 321 321 326 331 332 328 328 328 331 334 332 330
268 266 264 260 255 258 261 261 251 246 249 245 248 246 231 225 226 234 231 219 228 237 250 261 273 288 302 310 309 316 322 321 323 327 332 334 333 333 332 338 337 336 336
265 266 266 263 260 257 259 262 254 245 250 251 244 237 231 219 221 231 220 219 231 240 251 262 276 288 304 309 307 316 319 319 324 327 330 333 335 335 341 342 340 339 340
261 262 260 261 257 254 253 253 253 254 251 249 248 234 229 227 230 219 212 220 231 243 252 265 278 289 305 306 309 313 318 321 324 326 329 330 333 333 341 343 343 342 342
258 250 247 250 252 251 250 250 249 252 251 243 231 220 217 224 218 211 207 222 234 243 255 265 277 290 302 308 307 308 319 320 323 323 327 328 329 331 337 342 344 344 344
248 243 243 243 244 242 244 244 243 239 234 219 206 208 217 217 209 205 214 224 235 245 255 267 280 290 303 306 306 311 318 320 321 323 326 328 327 329 334 338 343 344 344
244 241 242 241 239 238 236 236 226 212 197 190 198 212 211 203 201 205 216 230 239 248 259 269 280 292 301 305 309 312 318 319 320 321 325 327 327 328 330 335 339 343 342
243 239 238 237 233 226 213 198 176 168 178 194 201 200 195 192 197 210 225 236 245 254 264 273 283 290 299 304 306 310 314 318 318 319 321 326 327 328 329 332 336 340 341
236 227 214 196 175 156 147 147 157 172 184 189 186 183 184 193 208 222 232 242 252 262 271 279 284 292 299 302 304 307 312 314 314 315 320 323 326 327 328 330 334 338 340
Height
3011 3012 3012 3012 3011 3011 3012 3012 3014 3014 3015 3013 3011 3011 3011 3011 3009 3008 3009 3010 3007 3005 3008 3006 3004 3003 3003 3001 2999 2996 2993 2991 2987 2988 2981 2977 2972 2970 2965 2958 2956 2952 2948
3003 3003 3003 3002 3002 3000 3001 3001 3003 3002 3002 3003 3001 3000 3000 3000 3000 3000 3000 3000 2998 2996 2996 2996 2994 2993 2992 2990 2988 2987 2984 2982 2979 2975 2970 2967 2962 2956 2950 2945 2940 2935 2929
2990 2990 2989 2989 2990 2991 2989 2990 2991 2990 2990 2989 2990 2990 2989 2988 2989 2990 2990 2991 2988 2987 2985 2985 2982 2980 2981 2979 2977 2976 2974 2973 2970 2963 2960 2950 2944 2941 2935 2929 2923 2917 2910
2976 2976 2974 2974 2977 2978 2975 2976 2977 2978 2977 2977 2978 2978 2979 2977 2978 2980 2980 2978 2977 2976 2974 2973 2970 2969 2968 2969 2967 2966 2963 2960 2957 2952 2946 2939 2932 2925 2916 2910 2902 2897 2889
2961 2958 2957 2959 2960 2963 2958 2961 2963 2963 2964 2965 2965 2966 2966 2965 2967 2968 2968 2967 2966 2966 2964 2963 2960 2959 2957 2957 2956 2954 2952 2948 2943 2938 2931 2925 2918 2907 2896 2890 2880 2876 2872
2944 2943 2944 2942 2943 2946 2944 2945 2948 2947 2948 2952 2952 2953 2952 2953 2954 2954 2955 2955 2956 2955 2954 2952 2950 2948 2948 2946 2944 2941 2938 2933 2928 2919 2911 2903 2899 2890 2881 2874 2866 2856 2847
2926 2927 2926 2928 2930 2930 2930 2929 2931 2933 2935 2936 2938 2940 2940 2940 2941 2941 2942 2943 2943 2942 2942 2941 2938 2938 2937 2935 2933 2930 2927 2922 2914 2904 2897 2891 2884 2877 2868 2858 2850 2842 2833
2907 2910 2910 2912 2914 2915 2915 2916 2917 2918 2921 2923 2926 2927 2928 2928 2928 2929 2930 2931 2930 2928 2931 2930 2929 2928 2926 2924 2921 2918 2916 2913 2904 2896 2888 2880 2871 2861 2851 2841 2831 2820 2813
2892 2895 2897 2900 2901 2901 2902 2904 2905 2907 2908 2912 2916 2918 2916 2915 2916 2917 2917 2918 2917 2918 2918 2918 2917 2917 2916 2914 2910 2906 2902 2898 2891 2883 2875 2867 2859 2852 2843 2829 2822 2808 2798
2883 2884 2885 2889 2890 2889 2890 2893 2895 2896 2897 2899 2902 2903 2903 2902 2904 2905 2905 2906 2905 2904 2905 2906 2906 2908 2905 2902 2899 2893 2888 2883 2875 2867 2861 2854 2846 2838 2830 2818 2807 2795 2785
2869 2869 2871 2873 2876 2878 2878 2879 2882 2884 2885 2886 2888 2890 2890 2890 2891 2891 2891 2892 2892 2893 2894 2895 2894 2894 2893 2891 2886 2880 2874 2867 2862 2854 2846 2839 2831 2823 2815 2807 2796 2782 2773
2855 2856 2857 2859 2861 2862 2865 2866 2868 2870 2871 2872 2874 2875 2875 2875 2876 2876 2876 2878 2879 2880 2884 2885 2885 2884 2882 2880 2875 2869 2862 2855 2848 2841 2834 2827 2817 2809 2800 2790 2778 2768 2758
2841 2842 2842 2844 2847 2848 2850 2850 2851 2854 2856 2858 2859 2861 2862 2863 2864 2863 2863 2865 2866 2867 2871 2870 2872 2872 2872 2869 2864 2859 2850 2843 2837 2830 2822 2814 2805 2795 2786 2774 2765 2755 2745
2827 2827 2827 2828 2831 2833 2834 2835 2836 2836 2837 2840 2842 2844 2846 2848 2849 2849 2852 2854 2856 2859 2861 2862 2862 2860 2859 2855 2853 2847 2840 2833 2826 2819 2811 2802 2793 2783 2773 2763 2751 2740 2726
2812 2812 2811 2812 2814 2815 2816 2819 2821 2823 2822 2824 2827 2829 2832 2836 2837 2838 2841 2845 2849 2852 2854 2855 2853 2852 2850 2846 2841 2838 2830 2823 2818 2810 2800 2791 2782 2772 2762 2751 2739 2725 2711
2794 2795 2795 2796 2800 2801 2800 2803 2806 2808 2809 2810 2812 2816 2819 2825 2824 2825 2828 2831 2837 2845 2846 2847 2845 2842 2839 2838 2833 2828 2821 2815 2809 2800 2790 2780 2770 2759 2749 2739 2726 2712 2697
2774 2776 2776 2775 2780 2784 2786 2786 2790 2791 2793 2791 2794 2797 2802 2808 2811 2816 2818 2818 2824 2834 2838 2840 2838 2834 2830 2829 2825 2817 2811 2805 2797 2789 2779 2769 2759 2750 2738 2726 2713 2699 2684
2759 2758 2758 2759 2762 2763 2764 2766 2765 2771 2777 2775 2776 2780 2783 2788 2797 2805 2808 2810 2815 2820 2827 2831 2830 2824 2821 2820 2816 2809 2801 2796 2789 2781 2771 2761 2751 2739 2728 2715 2703 2688 2672
2741 2742 2742 2744 2746 2748 2748 2751 2750 2751 2759 2756 2761 2765 2763 2775 2788 2793 2801 2802 2807 2811 2816 2819 2819 2816 2812 2810 2807 2799 2791 2787 2778 2770 2761 2752 2742 2731 2719 2706 2693 2680 2663
2722 2724 2725 2728 2730 2731 2733 2735 2736 2736 2741 2746 2747 2750 2755 2763 2771 2783 2791 2794 2801 2803 2806 2808 2809 2806 2803 2801 2798 2790 2785 2779 2770 2761 2753 2744 2734 2724 2710 2697 2684 2669 2653
2703 2705 2708 2711 2712 2716 2717 2719 2722 2724 2727 2732 2737 2742 2755 2762 2769 2773 2780 2788 2793 2795 2797 2799 2799 2797 2792 2791 2786 2782 2776 2769 2760 2752 2743 2735 2725 2716 2704 2692 2677 2664 2647
2686 2689 2694 2697 2700 2702 2704 2706 2708 2711 2714 2721 2728 2737 2748 2757 2761 2766 2773 2780 2784 2787 2788 2789 2789 2787 2784 2781 2778 2774 2765 2759 2752 2743 2735 2726 2718 2708 2697 2685 2671 2657 2641
2673 2677 2680 2683 2686 2688 2690 2692 2695 2699 2704 2713 2721 2731 2743 2750 2755 2762 2768 2773 2776 2778 2780 2780 2779 2777 2773 2771 2768 2762 2756 2750 2743 2735 2726 2717 2710 2700 2690 2678 2665 2651 2636
2660 2663 2667 2670 2672 2674 2677 2680 2684 2690 2699 2709 2720 2732 2739 2745 2751 2757 2761 2766 2768 2770 2771 2771 2770 2768 2765 2762 2757 2752 2746 2741 2734 2728 2718 2710 2702 2694 2684 2674 2661 2648 2634
2650 2652 2654 2657 2660 2664 2668 2673 2680 2689 2700 2713 2722 2729 2735 2741 2746 2752 2756 2759 2761 2761 2762 2762 2760 2759 2756 2752 2749 2744 2739 2734 2727 2721 2713 2705 2696 2687 2678 2669 2656 2645 2633
2644 2645 2648 2651 2655 2661 2669 2677 2686 2696 2707 2715 2722 2728 2733 2738 2743 2747 2750 2752 2753 2753 2753 2753 2752 2749 2746 2743 2740 2736 2731 2726 2721 2714 2706 2698 2690 2681 2672 2663 2653 2641 2629